When you browse on this site, cookies collect data to enhance your experience and personalize the content and advertising you see.
Visit our Privacy Policy to learn more. By continuing to use the site, you agree to this use of cookies and data.

Hourly Weather Bacevichi

Today, 2 July, Thursday

Time Temperature Precipitation Wind Pressure Humidity
00:00 +17°C° 0 mm 2 mps 745 mmHg 91%
01:00 +17°C° 0 mm 2 mps 745 mmHg 92%
02:00 +17°C° 0 mm 2 mps 745 mmHg 94%
03:00 +17°C° 0 mm 2 mps 745 mmHg 94%
04:00 +17°C° 0 mm 2 mps 745 mmHg 94%
05:00 +17°C° 0 mm 2 mps 745 mmHg 94%
06:00 +19°C° 0 mm 2 mps 745 mmHg 88%
07:00 +21°C° 0 mm 3 mps 745 mmHg 81%
08:00 +24°C° 0 mm 3 mps 745 mmHg 75%
09:00 +25°C° 0 mm 4 mps 745 mmHg 70%
10:00 +26°C° 0 mm 4 mps 744 mmHg 65%
11:00 +28°C° 0 mm 5 mps 744 mmHg 61%
12:00 +28°C° 0.7 mm 5 mps 744 mmHg 65%
13:00 +28°C° 0.7 mm 5 mps 744 mmHg 69%
14:00 +27°C° 0.7 mm 5 mps 744 mmHg 73%
15:00 +27°C° 0.7 mm 4 mps 744 mmHg 76%
16:00 +27°C° 0.7 mm 3 mps 744 mmHg 79%
17:00 +27°C° 0.7 mm 3 mps 744 mmHg 82%
18:00 +25°C° 0.1 mm 2 mps 744 mmHg 85%
19:00 +24°C° 0.1 mm 2 mps 744 mmHg 87%
20:00 +23°C° 0.1 mm 2 mps 744 mmHg 90%
21:00 +21°C° 0.4 mm 2 mps 744 mmHg 91%
22:00 +21°C° 0.4 mm 2 mps 744 mmHg 93%
23:00 +20°C° 0.4 mm 2 mps 745 mmHg 94%

Tomorrow, 3 July, Friday

Time Temperature Precipitation Wind Pressure Humidity
00:00 +20°C° 0.5 mm 2 mps 745 mmHg 95%
01:00 +19°C° 0.5 mm 2 mps 745 mmHg 95%
02:00 +19°C° 0.5 mm 2 mps 745 mmHg 96%
03:00 +20°C° 0.1 mm 1 mps 745 mmHg 96%
04:00 +20°C° 0.1 mm 1 mps 745 mmHg 96%
05:00 +20°C° 0.1 mm 1 mps 745 mmHg 96%
06:00 +21°C° 0.5 mm 1 mps 745 mmHg 94%
07:00 +21°C° 0.5 mm 1 mps 746 mmHg 93%
08:00 +22°C° 0.5 mm 1 mps 746 mmHg 91%
09:00 +21°C° 0.8 mm 1 mps 746 mmHg 92%
10:00 +20°C° 0.8 mm 2 mps 746 mmHg 93%
11:00 +20°C° 0.8 mm 2 mps 746 mmHg 93%
12:00 +20°C° 1.3 mm 2 mps 746 mmHg 93%
13:00 +20°C° 1.3 mm 2 mps 745 mmHg 93%
14:00 +20°C° 1.3 mm 2 mps 745 mmHg 93%
15:00 +20°C° 0.4 mm 2 mps 745 mmHg 93%
16:00 +20°C° 0.4 mm 2 mps 745 mmHg 92%
17:00 +21°C° 0.4 mm 2 mps 745 mmHg 92%
18:00 +20°C° 0.9 mm 2 mps 745 mmHg 93%
19:00 +20°C° 0.9 mm 2 mps 745 mmHg 95%
20:00 +19°C° 0.9 mm 2 mps 744 mmHg 96%
21:00 +19°C° 1.1 mm 2 mps 744 mmHg 97%
22:00 +19°C° 1.1 mm 2 mps 744 mmHg 98%
23:00 +20°C° 1.1 mm 1 mps 744 mmHg 98%

Day after tomorrow, 4 July, Saturday

Time Temperature Precipitation Wind Pressure Humidity
00:00 +20°C° 0.8 mm 1 mps 744 mmHg 98%
01:00 +20°C° 0.8 mm 1 mps 745 mmHg 98%
02:00 +19°C° 0.8 mm 2 mps 745 mmHg 98%
03:00 +20°C° 0.1 mm 1 mps 745 mmHg 98%
04:00 +20°C° 0.1 mm 1 mps 745 mmHg 97%
05:00 +20°C° 0.1 mm 1 mps 745 mmHg 97%
06:00 +19°C° 0 mm 2 mps 746 mmHg 94%
07:00 +20°C° 0 mm 2 mps 746 mmHg 91%
08:00 +21°C° 0 mm 2 mps 746 mmHg 87%
09:00 +22°C° 0 mm 3 mps 747 mmHg 82%
10:00 +24°C° 0 mm 3 mps 747 mmHg 76%
11:00 +25°C° 0 mm 3 mps 747 mmHg 71%
12:00 +25°C° 0 mm 4 mps 747 mmHg 70%
13:00 +25°C° 0 mm 4 mps 747 mmHg 68%
14:00 +25°C° 0 mm 4 mps 747 mmHg 67%
15:00 +25°C° 0 mm 4 mps 747 mmHg 66%
16:00 +25°C° 0 mm 3 mps 747 mmHg 65%
17:00 +25°C° 0 mm 3 mps 747 mmHg 64%
18:00 +22°C° 0 mm 3 mps 747 mmHg 70%
19:00 +21°C° 0 mm 2 mps 747 mmHg 75%
20:00 +19°C° 0 mm 2 mps 747 mmHg 80%
21:00 +18°C° 0 mm 2 mps 748 mmHg 82%
22:00 +17°C° 0 mm 2 mps 748 mmHg 84%
23:00 +16°C° 0 mm 1 mps 748 mmHg 87%

5 July, Sunday

Time Temperature Precipitation Wind Pressure Humidity
00:00 +15°C° 0 mm 1 mps 748 mmHg 88%
01:00 +15°C° 0 mm 1 mps 748 mmHg 89%
02:00 +15°C° 0 mm 1 mps 748 mmHg 90%
03:00 +15°C° 0 mm 1 mps 748 mmHg 89%
04:00 +15°C° 0 mm 1 mps 748 mmHg 88%
05:00 +14°C° 0 mm 0 mps 748 mmHg 88%
06:00 +16°C° 0 mm 0 mps 748 mmHg 82%
07:00 +18°C° 0 mm 0 mps 748 mmHg 76%
08:00 +20°C° 0 mm 0 mps 748 mmHg 71%
09:00 +23°C° 0 mm 1 mps 748 mmHg 66%
10:00 +24°C° 0 mm 1 mps 748 mmHg 62%
11:00 +25°C° 0 mm 2 mps 748 mmHg 58%
12:00 +26°C° 0 mm 2 mps 748 mmHg 55%
13:00 +26°C° 0 mm 2 mps 747 mmHg 53%
14:00 +27°C° 0 mm 2 mps 747 mmHg 51%
15:00 +27°C° 0 mm 2 mps 746 mmHg 54%
16:00 +26°C° 0 mm 2 mps 746 mmHg 57%
17:00 +26°C° 0 mm 3 mps 746 mmHg 59%
18:00 +25°C° 0 mm 2 mps 746 mmHg 66%
19:00 +23°C° 0 mm 2 mps 746 mmHg 73%
20:00 +20°C° 0 mm 2 mps 746 mmHg 80%
21:00 +20°C° 0 mm 2 mps 746 mmHg 83%
22:00 +19°C° 0 mm 2 mps 746 mmHg 86%
23:00 +18°C° 0 mm 2 mps 746 mmHg 89%

6 July, Monday

Time Temperature Precipitation Wind Pressure Humidity
00:00 +18°C° 0 mm 2 mps 745 mmHg 91%
01:00 +17°C° 0 mm 2 mps 745 mmHg 92%
02:00 +17°C° 0 mm 2 mps 745 mmHg 94%
03:00 +17°C° 0 mm 2 mps 745 mmHg 93%
04:00 +17°C° 0 mm 3 mps 745 mmHg 93%
05:00 +17°C° 0 mm 3 mps 745 mmHg 92%
06:00 +19°C° 0 mm 3 mps 745 mmHg 86%
07:00 +21°C° 0 mm 4 mps 745 mmHg 81%
08:00 +22°C° 0 mm 4 mps 745 mmHg 76%
09:00 +23°C° 0 mm 4 mps 745 mmHg 72%
10:00 +26°C° 0 mm 5 mps 745 mmHg 68%
11:00 +27°C° 0 mm 5 mps 745 mmHg 64%
12:00 +27°C° 0.1 mm 5 mps 744 mmHg 64%
13:00 +28°C° 0.1 mm 5 mps 744 mmHg 64%
14:00 +28°C° 0.1 mm 5 mps 744 mmHg 63%
15:00 +27°C° 0.4 mm 4 mps 744 mmHg 70%
16:00 +26°C° 0.4 mm 3 mps 744 mmHg 77%
17:00 +25°C° 0.4 mm 2 mps 744 mmHg 84%
18:00 +24°C° 0.1 mm 2 mps 744 mmHg 86%
19:00 +23°C° 0.1 mm 1 mps 744 mmHg 88%
20:00 +22°C° 0.1 mm 1 mps 744 mmHg 90%
21:00 +22°C° 0 mm 1 mps 744 mmHg 91%
22:00 +21°C° 0 mm 1 mps 744 mmHg 92%
23:00 +21°C° 0 mm 1 mps 744 mmHg 93%

7 July, Tuesday

Time Temperature Precipitation Wind Pressure Humidity
00:00 +20°C° 0 mm 1 mps 744 mmHg 93%
01:00 +20°C° 0 mm 1 mps 744 mmHg 94%
02:00 +19°C° 0 mm 2 mps 744 mmHg 94%
03:00 +19°C° 0 mm 2 mps 744 mmHg 95%
04:00 +19°C° 0 mm 2 mps 744 mmHg 95%
05:00 +19°C° 0 mm 2 mps 744 mmHg 95%
06:00 +19°C° 0 mm 2 mps 744 mmHg 92%
07:00 +20°C° 0 mm 3 mps 745 mmHg 88%
08:00 +21°C° 0 mm 3 mps 745 mmHg 84%
09:00 +22°C° 0 mm 3 mps 745 mmHg 79%
10:00 +22°C° 0 mm 4 mps 745 mmHg 73%
11:00 +23°C° 0 mm 4 mps 746 mmHg 68%
12:00 +23°C° 0 mm 4 mps 746 mmHg 64%
13:00 +23°C° 0 mm 4 mps 746 mmHg 61%
14:00 +23°C° 0 mm 4 mps 745 mmHg 57%
15:00 +22°C° 0 mm 3 mps 746 mmHg 60%
16:00 +22°C° 0 mm 3 mps 746 mmHg 63%
17:00 +21°C° 0 mm 3 mps 746 mmHg 66%
18:00 +20°C° 0 mm 3 mps 746 mmHg 69%
19:00 +19°C° 0 mm 2 mps 746 mmHg 73%
20:00 +18°C° 0 mm 2 mps 746 mmHg 77%
21:00 +17°C° 0 mm 2 mps 746 mmHg 78%
22:00 +16°C° 0 mm 3 mps 746 mmHg 78%
23:00 +16°C° 0 mm 3 mps 746 mmHg 79%
Show more